カタログに戻る

SHIYAN 30 02

運用中科学VLEO
NORAD 65852·PAYLOAD·🇨🇳 China

打ち上げ Sep 29, 2025 から Xichang Satellite Launch Center

Loading…

次のパス (今後24時間)

TLE

最新Source: Space-Track

元期: Sep 14, 2026, 18:25 UTC

1 65852U 25222B   26257.76766253  .00001400  00000-0  13822-3 0  9997
2 65852  34.9965  85.2994 0002661 201.5530 158.5063 14.91970837 52400

AllMySatでSHIYAN 30 02をリアルタイム追跡

Download on the App Store